| time (UTC) | temp C | wind direction | speed KPH | gust KPH | rain 1hr cm | rain 24hr cm | rain mn cm | humidity % | barometer mb |
| 20260507201647 | 12 | 248 | 3.2 | 6.4 | 0.00 | 0.00 | 2.39 | 89 | 1003.0 |
| 20260507201137 | 13 | 248 | 1.6 | 6.4 | 0.00 | 0.00 | 2.39 | 88 | 1002.7 |
| 20260507200627 | 13 | 248 | 0.0 | 6.4 | 0.00 | 0.00 | 2.39 | 88 | 1002.9 |
| 20260507195606 | 13 | 270 | 0.0 | 6.4 | 0.00 | 0.00 | 2.39 | 86 | 1002.4 |
| 20260507194036 | 13 | 293 | 0.0 | 6.4 | 0.00 | 0.00 | 2.39 | 85 | 1001.4 |
| 20260507192506 | 13 | 293 | 1.6 | 6.4 | 0.00 | 0.00 | 2.39 | 84 | 1001.2 |
| 20260507191956 | 13 | 248 | 3.2 | 6.4 | 0.00 | 0.00 | 2.39 | 83 | 1002.0 |
| 20260507191445 | 13 | 293 | 1.6 | 11.3 | 0.00 | 0.00 | 2.39 | 83 | 1002.0 |
| 20260507190936 | 13 | 315 | 1.6 | 11.3 | 0.00 | 0.00 | 2.39 | 83 | 1001.8 |
| 20260507190425 | 13 | 270 | 1.6 | 6.4 | 0.00 | 0.00 | 2.39 | 83 | 1002.2 |
| 20260507185916 | 14 | 270 | 3.2 | 9.7 | 0.00 | 0.00 | 2.39 | 81 | 1002.5 |
| 20260507185405 | 14 | 315 | 0.0 | 17.7 | 0.00 | 0.00 | 2.39 | 81 | 1003.0 |
| 20260507184855 | 14 | 338 | 3.2 | 17.7 | 0.00 | 0.00 | 2.39 | 80 | 1003.0 |
| 20260507184345 | 14 | 248 | 3.2 | 11.3 | 0.00 | 0.00 | 2.39 | 80 | 1003.2 |
| 20260507183835 | 14 | 293 | 3.2 | 11.3 | 0.00 | 0.00 | 2.39 | 79 | 1003.3 |
| 20260507182814 | 14 | 248 | 3.2 | 9.7 | 0.00 | 0.00 | 2.39 | 80 | 1003.5 |
| 20260507182307 | 14 | 270 | 3.2 | 11.3 | 0.00 | 0.00 | 2.39 | 81 | 1003.7 |
| 20260507181751 | 14 | 225 | 3.2 | 11.3 | 0.00 | 0.00 | 2.39 | 80 | 1003.9 |
| 20260507181241 | 15 | 315 | 1.6 | 6.4 | 0.00 | 0.00 | 2.39 | 82 | 1004.1 |
| 20260507180733 | 14 | 248 | 0.0 | 9.7 | 0.00 | 0.00 | 2.39 | 82 | 1004.5 |
| 20260507180233 | 14 | 248 | 3.2 | 9.7 | 0.00 | 0.00 | 2.39 | 81 | 1004.7 |
| 20260507175714 | 14 | 225 | 6.4 | 9.7 | 0.00 | 0.00 | 2.39 | 81 | 1004.7 |
| 20260507175204 | 14 | 248 | 3.2 | 14.5 | 0.00 | 0.00 | 2.39 | 82 | 1004.6 |
| 20260507174654 | 14 | 248 | 4.8 | 14.5 | 0.00 | 0.00 | 2.39 | 82 | 1004.7 |
| 20260507174144 | 14 | 248 | 0.0 | 6.4 | 0.00 | 0.00 | 2.39 | 83 | 1004.7 |
| 20260507173634 | 14 | 270 | 0.0 | 17.7 | 0.00 | 0.00 | 2.39 | 83 | 1004.6 |
| 20260507173123 | 13 | 248 | 6.4 | 17.7 | 0.00 | 0.00 | 2.39 | 82 | 1004.4 |
| 20260507172613 | 14 | 248 | 3.2 | 6.4 | 0.00 | 0.00 | 2.39 | 83 | 1004.3 |
| 20260507172102 | 14 | 270 | 3.2 | 6.4 | 0.00 | 0.00 | 2.39 | 83 | 1003.7 |
| 20260507171043 | 14 | 248 | 1.6 | 6.4 | 0.00 | 0.00 | 2.39 | 83 | 1003.5 |
| 20260507165513 | 14 | 248 | 1.6 | 6.4 | 0.00 | 0.00 | 2.39 | 83 | 1003.5 |
| 20260507165002 | 14 | 248 | 1.6 | 6.4 | 0.00 | 0.00 | 2.39 | 83 | 1003.1 |
| 20260507164453 | 14 | 248 | 1.6 | 6.4 | 0.00 | 0.00 | 2.39 | 83 | 1003.1 |
| 20260507163942 | 14 | 270 | 3.2 | 6.4 | 0.00 | 0.00 | 2.39 | 83 | 1003.2 |
| 20260507163431 | 14 | 248 | 1.6 | 6.4 | 0.00 | 0.00 | 2.39 | 85 | 1003.4 |
| 20260507162922 | 13 | 270 | 0.0 | 6.4 | 0.00 | 0.00 | 2.39 | 86 | 1003.5 |
| 20260507162411 | 13 | 248 | 1.6 | 6.4 | 0.00 | 0.00 | 2.39 | 85 | 1003.8 |
| 20260507161902 | 13 | 293 | 3.2 | 6.4 | 0.00 | 0.00 | 2.39 | 84 | 1003.9 |
| 20260507161352 | 13 | 270 | 1.6 | 9.7 | 0.00 | 0.00 | 2.39 | 85 | 1004.1 |
| 20260507160841 | 14 | 248 | 3.2 | 9.7 | 0.00 | 0.00 | 2.39 | 85 | 1003.9 |
| 20260507155821 | 14 | 225 | 3.2 | 6.4 | 0.00 | 0.00 | 2.39 | 85 | 1004.1 |
| 20260507155311 | 14 | 315 | 3.2 | 6.4 | 0.00 | 0.00 | 2.39 | 85 | 1003.5 |
| 20260507154801 | 15 | 270 | 3.2 | 6.4 | 0.00 | 0.00 | 2.39 | 85 | 1003.6 |
| 20260507154250 | 15 | 248 | 3.2 | 9.7 | 0.00 | 0.00 | 2.39 | 84 | 1003.9 |
| 20260507153741 | 15 | 248 | 3.2 | 9.7 | 0.00 | 0.00 | 2.39 | 85 | 1003.5 |
| 20260507153230 | 14 | 248 | 4.8 | 6.4 | 0.00 | 0.00 | 2.39 | 85 | 1003.4 |
| 20260507152721 | 14 | 248 | 0.0 | 6.4 | 0.00 | 0.00 | 2.39 | 88 | 1003.7 |
| 20260507152210 | 14 | 248 | 1.6 | 6.4 | 0.00 | 0.00 | 2.39 | 88 | 1003.6 |
| 20260507151701 | 14 | 270 | 1.6 | 6.4 | 0.00 | 0.00 | 2.39 | 88 | 1003.7 |
| 20260507151150 | 15 | 270 | 0.0 | 6.4 | 0.00 | 0.00 | 2.39 | 87 | 1003.5 |
| 20260507150130 | 15 | 0 | 0.0 | 9.7 | 0.00 | 0.00 | 2.39 | 88 | 1003.1 |
| 20260507145620 | 14 | 293 | 3.2 | 9.7 | 0.00 | 0.00 | 2.39 | 88 | 1002.9 |
| 20260507145110 | 14 | 248 | 1.6 | 9.7 | 0.00 | 0.00 | 2.39 | 89 | 1003.3 |
| 20260507144559 | 14 | 248 | 1.6 | 6.4 | 0.00 | 0.00 | 2.39 | 90 | 1003.4 |
| 20260507144050 | 14 | 270 | 0.0 | 6.4 | 0.00 | 0.00 | 2.39 | 89 | 1003.4 |
| 20260507143030 | 13 | 270 | 3.2 | 9.7 | 0.00 | 0.00 | 2.39 | 89 | 1003.7 |
| 20260507142520 | 14 | 270 | 1.6 | 9.7 | 0.00 | 0.00 | 2.39 | 90 | 1003.7 |
| 20260507142009 | 14 | 270 | 3.2 | 6.4 | 0.00 | 0.00 | 2.39 | 89 | 1003.1 |
| 20260507140949 | 13 | 248 | 0.0 | 9.7 | 0.00 | 0.00 | 2.39 | 93 | 1003.4 |
| 20260507140439 | 13 | 225 | 0.0 | 9.7 | 0.00 | 0.00 | 2.39 | 95 | 1003.5 |
| 20260507135928 | 12 | 270 | 3.2 | 9.7 | 0.00 | 0.00 | 2.39 | 96 | 1003.7 |
| 20260507135418 | 12 | 270 | 3.2 | 9.7 | 0.00 | 0.00 | 2.39 | 98 | 1003.5 |
| 20260507134358 | 13 | 293 | 1.6 | 6.4 | 0.00 | 0.00 | 2.39 | 99 | 1002.9 |
| 20260507133848 | 13 | 315 | 0.0 | 6.4 | 0.00 | 0.00 | 2.39 | 99 | 1003.3 |
| 20260507133338 | 13 | 225 | 0.0 | 6.4 | 0.00 | 0.00 | 2.39 | 99 | 1003.2 |
| 20260507132828 | 13 | 203 | 0.0 | 6.4 | 0.00 | 0.00 | 2.39 | 99 | 1003.4 |
| 20260507132318 | 13 | 225 | 0.0 | 6.4 | 0.00 | 0.00 | 2.39 | 99 | 1004.0 |
| 20260507131807 | 13 | 225 | 0.0 | 0.0 | 0.00 | 0.00 | 2.39 | 99 | 1003.9 |
| 20260507131258 | 13 | 225 | 0.0 | 0.0 | 0.00 | 0.00 | 2.39 | 99 | 1003.9 |
| 20260507130237 | 13 | 270 | 0.0 | 3.2 | 0.00 | 0.00 | 2.39 | 99 | 1003.8 |
| 20260507125218 | 13 | 225 | 1.6 | 3.2 | 0.00 | 0.00 | 2.39 | 99 | 1003.8 |
| 20260507124707 | 13 | 270 | 1.6 | 9.7 | 0.00 | 0.00 | 2.39 | 99 | 1003.9 |
| 20260507124156 | 13 | 270 | 0.0 | 9.7 | 0.00 | 0.00 | 2.39 | 99 | 1003.7 |
| 20260507123647 | 13 | 270 | 4.8 | 6.4 | 0.00 | 0.00 | 2.39 | 99 | 1004.4 |
| 20260507123136 | 13 | 180 | 1.6 | 3.2 | 0.00 | 0.00 | 2.39 | 99 | 1002.8 |
| 20260507122627 | 13 | 248 | 0.0 | 0.0 | 0.00 | 0.00 | 2.39 | 99 | 1002.3 |
| 20260507122117 | 13 | 315 | 0.0 | 0.0 | 0.00 | 0.00 | 2.39 | 99 | 1002.2 |
| 20260507121607 | 13 | 248 | 0.0 | 0.0 | 0.00 | 0.00 | 2.39 | 99 | 1002.7 |
| 20260507121056 | 13 | 248 | 0.0 | 3.2 | 0.00 | 0.00 | 2.39 | 99 | 1002.5 |
| 20260507120549 | 13 | 270 | 0.0 | 6.4 | 0.00 | 0.00 | 2.39 | 99 | 1002.9 |
| 20260507120036 | 13 | 248 | 1.6 | 6.4 | 0.00 | 0.00 | 2.39 | 99 | 1003.0 |
| 20260507115015 | 13 | 248 | 1.6 | 6.4 | 0.00 | 0.00 | 2.39 | 99 | 1002.5 |
| 20260507114513 | 13 | 338 | 1.6 | 6.4 | 0.00 | 0.00 | 2.39 | 99 | 1002.2 |
| 20260507113955 | 13 | 23 | 3.2 | 6.4 | 0.00 | 0.00 | 2.39 | 99 | 1001.7 |
| 20260507113445 | 14 | 203 | 0.0 | 3.2 | 0.00 | 0.00 | 2.39 | 99 | 1001.4 |
| 20260507112935 | 13 | 270 | 1.6 | 3.2 | 0.00 | 0.00 | 2.39 | 99 | 1002.1 |
| 20260507112426 | 13 | 248 | 1.6 | 6.4 | 0.00 | 0.00 | 2.39 | 99 | 1002.5 |
| 20260507111915 | 13 | 248 | 3.2 | 6.4 | 0.00 | 0.00 | 2.39 | 99 | 1002.7 |
| 20260507111405 | 13 | 225 | 0.0 | 6.4 | 0.00 | 0.00 | 2.39 | 99 | 1003.0 |
| 20260507110855 | 13 | 203 | 0.0 | 3.2 | 0.00 | 0.00 | 2.39 | 99 | 1003.1 |
| 20260507110345 | 13 | 225 | 0.0 | 3.2 | 0.00 | 0.00 | 2.39 | 99 | 1003.1 |
| 20260507105835 | 13 | 293 | 1.6 | 3.2 | 0.00 | 0.00 | 2.39 | 99 | 1002.1 |
| 20260507105324 | 13 | 248 | 0.0 | 6.4 | 0.00 | 0.00 | 2.39 | 99 | 1001.7 |
| 20260507104815 | 13 | 225 | 0.0 | 6.4 | 0.00 | 0.00 | 2.39 | 99 | 1001.3 |
| 20260507104304 | 13 | 248 | 0.0 | 0.0 | 0.00 | 0.00 | 2.39 | 99 | 1001.8 |
| 20260507103755 | 13 | 270 | 0.0 | 0.0 | 0.00 | 0.00 | 2.39 | 99 | 1001.4 |
| 20260507103244 | 13 | 270 | 0.0 | 0.0 | 0.00 | 0.00 | 2.39 | 99 | 1002.0 |
| 20260507102734 | 13 | 248 | 0.0 | 3.2 | 0.00 | 0.00 | 2.39 | 99 | 1002.3 |
| 20260507102224 | 14 | 225 | 0.0 | 3.2 | 0.00 | 0.00 | 2.39 | 99 | 1002.1 |
| 20260507101204 | 14 | 270 | 1.6 | 6.4 | 0.00 | 0.00 | 2.39 | 99 | 1001.8 |
| 20260507100653 | 14 | 270 | 1.6 | 3.2 | 0.00 | 0.00 | 2.39 | 99 | 1001.6 |
| 20260507100143 | 14 | 23 | 1.6 | 6.4 | 0.00 | 0.00 | 2.39 | 99 | 1001.4 |
| 20260507095633 | 14 | 113 | 1.6 | 6.4 | 0.00 | 0.00 | 2.39 | 99 | 1001.3 |
| 20260507095124 | 14 | 270 | 1.6 | 6.4 | 0.00 | 0.00 | 2.39 | 99 | 1001.1 |
| 20260507094620 | 15 | 225 | 1.6 | 3.2 | 0.00 | 0.00 | 2.39 | 99 | 1000.8 |
| 20260507094103 | 15 | 270 | 1.6 | 9.7 | 0.00 | 0.00 | 2.39 | 99 | 1001.3 |
| 20260507093553 | 15 | 248 | 3.2 | 9.7 | 0.00 | 0.00 | 2.39 | 99 | 1000.8 |
| 20260507093043 | 15 | 293 | 0.0 | 3.2 | 0.00 | 0.00 | 2.39 | 99 | 1001.1 |
| 20260507092532 | 15 | 270 | 3.2 | 3.2 | 0.00 | 0.00 | 2.39 | 99 | 1001.9 |
| 20260507092023 | 15 | 248 | 1.6 | 3.2 | 0.00 | 0.00 | 2.39 | 99 | 1001.8 |
| 20260507091513 | 15 | 225 | 0.0 | 3.2 | 0.00 | 0.00 | 2.39 | 99 | 1002.1 |
| 20260507090452 | 15 | 248 | 0.0 | 6.4 | 0.00 | 0.00 | 2.39 | 99 | 1002.5 |
| 20260507085943 | 15 | 248 | 1.6 | 6.4 | 0.00 | 0.00 | 2.39 | 99 | 1002.3 |
| 20260507085432 | 15 | 248 | 0.0 | 3.2 | 0.00 | 0.00 | 2.39 | 99 | 1002.2 |
| 20260507084921 | 15 | 270 | 0.0 | 3.2 | 0.00 | 0.00 | 2.39 | 99 | 1002.1 |
| 20260507084412 | 15 | 293 | 0.0 | 6.4 | 0.00 | 0.00 | 2.39 | 99 | 1001.9 |
| 20260507083902 | 15 | 248 | 1.6 | 6.4 | 0.00 | 0.00 | 2.39 | 99 | 1001.9 |
| 20260507083352 | 15 | 270 | 0.0 | 3.2 | 0.00 | 0.00 | 2.39 | 99 | 1001.4 |
| 20260507082841 | 15 | 270 | 3.2 | 3.2 | 0.00 | 0.00 | 2.39 | 99 | 1001.5 |
| 20260507082331 | 15 | 248 | 0.0 | 0.0 | 0.00 | 0.00 | 2.39 | 99 | 1001.2 |
| 20260507081821 | 15 | 248 | 0.0 | 0.0 | 0.00 | 0.00 | 2.39 | 99 | 1001.6 |
| 20260507081311 | 15 | 248 | 0.0 | 0.0 | 0.00 | 0.00 | 2.39 | 99 | 1002.0 |
| 20260507080800 | 15 | 248 | 0.0 | 3.2 | 0.00 | 0.00 | 2.39 | 99 | 1002.4 |
| 20260507075740 | 16 | 248 | 0.0 | 3.2 | 0.00 | 0.00 | 2.39 | 99 | 1002.7 |
| 20260507075232 | 16 | 270 | 0.0 | 0.0 | 0.00 | 0.00 | 2.39 | 99 | 1002.9 |
| 20260507074210 | 16 | 248 | 0.0 | 3.2 | 0.00 | 0.00 | 2.39 | 99 | 1003.2 |
| 20260507073150 | 16 | 270 | 0.0 | 0.0 | 0.00 | 0.00 | 2.39 | 99 | 1002.4 |
| 20260507072640 | 16 | 248 | 0.0 | 0.0 | 0.00 | 0.00 | 2.39 | 99 | 1002.1 |
| 20260507072129 | 16 | 225 | 0.0 | 0.0 | 0.00 | 0.00 | 2.39 | 99 | 1001.7 |
| 20260507071109 | 16 | 248 | 0.0 | 0.0 | 0.00 | 0.00 | 2.39 | 99 | 1002.5 |
| 20260507070600 | 16 | 248 | 0.0 | 0.0 | 0.00 | 0.00 | 2.39 | 99 | 1002.2 |
| 20260507070049 | 16 | 248 | 0.0 | 0.0 | 0.00 | 0.00 | 2.39 | 99 | 1001.9 |
| 20260507064519 | 16 | 293 | 0.0 | 0.0 | 0.00 | 0.00 | 2.39 | 99 | 1001.8 |
| 20260507064009 | 16 | 315 | 0.0 | 0.0 | 0.00 | 0.00 | 2.39 | 99 | 1001.2 |
| 20260507062439 | 16 | 293 | 0.0 | 9.7 | 0.00 | 0.00 | 2.39 | 99 | 1001.1 |
| 20260507061928 | 16 | 68 | 6.4 | 9.7 | 0.00 | 0.00 | 2.39 | 99 | 1001.6 |
| 20260507061418 | 16 | 293 | 3.2 | 6.4 | 0.00 | 0.00 | 2.39 | 99 | 999.6 |
| 20260507060357 | 16 | 315 | 0.0 | 0.0 | 0.00 | 0.00 | 2.39 | 99 | 1001.0 |
| 20260507055536 | 16 | 248 | 0.0 | 6.4 | 0.10 | 2.39 | 2.39 | 99 | 1001.0 |
| 20260507055026 | 16 | 68 | 0.0 | 6.4 | 0.10 | 2.39 | 2.39 | 99 | 1000.9 |
| 20260507054516 | 16 | 68 | 1.6 | 6.4 | 0.10 | 2.39 | 2.39 | 99 | 1001.8 |
| 20260507054006 | 16 | 68 | 0.0 | 3.2 | 0.13 | 2.39 | 2.39 | 99 | 1002.8 |
| 20260507053456 | 16 | 90 | 0.0 | 3.2 | 0.13 | 2.39 | 2.39 | 99 | 1003.1 |
| 20260507052947 | 16 | 90 | 0.0 | 0.0 | 0.20 | 2.39 | 2.39 | 99 | 1003.4 |
| 20260507051415 | 16 | 248 | 0.0 | 6.4 | 0.20 | 2.34 | 2.34 | 99 | 1004.0 |
| 20260507050906 | 17 | 225 | 0.0 | 6.4 | 0.33 | 2.34 | 2.34 | 99 | 1002.6 |
| 20260507050356 | 17 | 248 | 0.0 | 6.4 | 0.36 | 2.31 | 2.31 | 99 | 1002.3 |
| 20260507044825 | 17 | 248 | 0.0 | 3.2 | 0.48 | 2.31 | 2.31 | 99 | 1002.1 |
| 20260507043255 | 17 | 180 | 0.0 | 6.4 | 1.19 | 2.26 | 2.26 | 99 | 1003.2 |
| 20260507041725 | 17 | 293 | 0.0 | 3.2 | 1.30 | 2.13 | 2.13 | 99 | 1003.6 |
| 20260507040704 | 17 | 203 | 0.0 | 3.2 | 1.60 | 1.98 | 1.98 | 99 | 1002.6 |
| 20260507035644 | 17 | 270 | 1.6 | 6.4 | 1.88 | 1.88 | 1.88 | 99 | 1001.6 |
| 20260507035133 | 17 | 270 | 3.2 | 3.2 | 1.83 | 1.83 | 1.85 | 99 | 1001.2 |
| 20260507034625 | 17 | 248 | 1.6 | 11.3 | 1.78 | 1.78 | 1.78 | 99 | 1002.1 |
| 20260507034113 | 17 | 293 | 3.2 | 11.3 | 1.68 | 1.68 | 1.68 | 99 | 1002.9 |
| 20260507033604 | 17 | 248 | 0.0 | 6.4 | 1.17 | 1.17 | 1.19 | 98 | 1003.6 |
| 20260507033053 | 17 | 248 | 3.2 | 6.4 | 1.04 | 1.04 | 1.04 | 98 | 1002.9 |
| 20260507032543 | 17 | 270 | 0.0 | 6.4 | 1.02 | 1.02 | 1.02 | 98 | 1002.2 |
| 20260507032033 | 17 | 270 | 0.0 | 11.3 | 1.02 | 1.02 | 1.02 | 97 | 1002.0 |
| 20260507031523 | 18 | 68 | 3.2 | 11.3 | 0.76 | 0.76 | 0.76 | 96 | 1001.5 |
| 20260507031012 | 19 | 270 | 1.6 | 6.4 | 0.53 | 0.53 | 0.53 | 93 | 1001.7 |
| 20260507030503 | 20 | 180 | 1.6 | 11.3 | 0.30 | 0.30 | 0.30 | 90 | 1001.9 |
| 20260507025952 | 24 | 293 | 3.2 | 11.3 | 0.00 | 0.00 | 0.00 | 84 | 1001.7 |
| 20260507025442 | 25 | 270 | 3.2 | 9.7 | 0.00 | 0.00 | 0.00 | 86 | 1000.7 |
| 20260507024932 | 25 | 248 | 1.6 | 12.9 | 0.00 | 0.00 | 0.00 | 84 | 1000.5 |
| 20260507024422 | 25 | 248 | 3.2 | 14.5 | 0.00 | 0.00 | 0.00 | 84 | 999.8 |
| 20260507023912 | 25 | 90 | 6.4 | 14.5 | 0.00 | 0.00 | 0.00 | 84 | 999.7 |
| 20260507023402 | 25 | 0 | 4.8 | 14.5 | 0.00 | 0.00 | 0.00 | 84 | 999.6 |
| 20260507022341 | 25 | 45 | 6.4 | 14.5 | 0.00 | 0.00 | 0.00 | 84 | 1000.2 |
| 20260507021831 | 25 | 68 | 4.8 | 14.5 | 0.00 | 0.00 | 0.00 | 85 | 1000.1 |
| 20260507021321 | 25 | 293 | 4.8 | 17.7 | 0.00 | 0.00 | 0.00 | 84 | 1000.1 |
| 20260507020812 | 25 | 338 | 4.8 | 17.7 | 0.00 | 0.00 | 0.00 | 84 | 1000.6 |
| 20260507020301 | 25 | 45 | 6.4 | 14.5 | 0.00 | 0.00 | 0.00 | 84 | 1000.4 |
| 20260507015752 | 25 | 45 | 6.4 | 17.7 | 0.00 | 0.00 | 0.00 | 84 | 1000.5 |
| 20260507015241 | 25 | 338 | 6.4 | 17.7 | 0.00 | 0.00 | 0.00 | 84 | 1000.6 |
| 20260507014731 | 25 | 23 | 6.4 | 17.7 | 0.00 | 0.00 | 0.00 | 84 | 1000.6 |
| 20260507014221 | 25 | 0 | 6.4 | 17.7 | 0.00 | 0.00 | 0.00 | 84 | 1000.9 |
| 20260507013710 | 25 | 45 | 8.0 | 17.7 | 0.00 | 0.00 | 0.00 | 84 | 1000.7 |
| 20260507013201 | 25 | 45 | 6.4 | 17.7 | 0.00 | 0.00 | 0.00 | 84 | 1000.7 |
| 20260507012651 | 25 | 23 | 6.4 | 20.9 | 0.00 | 0.00 | 0.00 | 84 | 1000.8 |
| 20260507012140 | 25 | 68 | 8.0 | 20.9 | 0.00 | 0.00 | 0.00 | 84 | 1001.0 |
| 20260507011630 | 25 | 45 | 4.8 | 17.7 | 0.00 | 0.00 | 0.00 | 84 | 1001.0 |
| 20260507011120 | 25 | 90 | 4.8 | 17.7 | 0.00 | 0.00 | 0.00 | 83 | 1001.2 |
| 20260507010610 | 25 | 68 | 6.4 | 17.7 | 0.00 | 0.00 | 0.00 | 83 | 1001.1 |
| 20260507010100 | 25 | 90 | 3.2 | 17.7 | 0.00 | 0.00 | 0.00 | 83 | 1001.0 |
| 20260507005550 | 25 | 90 | 6.4 | 17.7 | 0.00 | 0.00 | 0.00 | 83 | 1001.0 |
| 20260507004530 | 25 | 23 | 4.8 | 14.5 | 0.00 | 0.00 | 0.00 | 83 | 1001.2 |
| 20260507004020 | 25 | 23 | 3.2 | 17.7 | 0.00 | 0.00 | 0.00 | 83 | 1001.3 |
| 20260507003510 | 25 | 0 | 8.0 | 17.7 | 0.00 | 0.00 | 0.00 | 82 | 1001.2 |
| 20260507003000 | 25 | 45 | 6.4 | 12.9 | 0.00 | 0.00 | 0.00 | 82 | 1001.2 |
| 20260507002449 | 25 | 45 | 6.4 | 17.7 | 0.00 | 0.00 | 0.00 | 82 | 1001.2 |
| 20260507001940 | 25 | 68 | 4.8 | 17.7 | 0.00 | 0.00 | 0.00 | 82 | 1001.2 |
| 20260507001429 | 25 | 68 | 6.4 | 14.5 | 0.00 | 0.00 | 0.00 | 82 | 1001.0 |
| 20260507000918 | 25 | 68 | 3.2 | 17.7 | 0.00 | 0.00 | 0.00 | 82 | 1001.1 |
| 20260507000409 | 25 | 68 | 6.4 | 17.7 | 0.00 | 0.00 | 0.00 | 82 | 1001.1 |
| 20260506235859 | 26 | 68 | 6.4 | 20.9 | 0.00 | 0.00 | 0.00 | 82 | 1000.8 |
| 20260506235349 | 26 | 68 | 6.4 | 20.9 | 0.00 | 0.00 | 0.00 | 81 | 1000.6 |
| 20260506234838 | 26 | 338 | 6.4 | 17.7 | 0.00 | 0.00 | 0.00 | 81 | 1000.9 |
| 20260506234328 | 26 | 0 | 6.4 | 17.7 | 0.00 | 0.00 | 0.00 | 81 | 1001.2 |
| 20260506233818 | 26 | 45 | 4.8 | 20.9 | 0.00 | 0.00 | 0.00 | 81 | 1001.4 |
| 20260506233308 | 26 | 45 | 6.4 | 20.9 | 0.00 | 0.00 | 0.00 | 81 | 1001.1 |
| 20260506232758 | 26 | 90 | 8.0 | 17.7 | 0.00 | 0.00 | 0.00 | 81 | 1000.8 |
| 20260506232248 | 26 | 158 | 3.2 | 17.7 | 0.00 | 0.00 | 0.00 | 82 | 1000.2 |
| 20260506231738 | 25 | 68 | 3.2 | 17.7 | 0.00 | 0.00 | 0.00 | 82 | 1000.0 |
| 20260506231231 | 25 | 45 | 6.4 | 17.7 | 0.00 | 0.00 | 0.00 | 82 | 1000.2 |
| 20260506230717 | 25 | 45 | 3.2 | 17.7 | 0.00 | 0.00 | 0.00 | 82 | 1000.5 |
| 20260506230208 | 25 | 45 | 8.0 | 17.7 | 0.00 | 0.00 | 0.00 | 81 | 1000.9 |
| 20260506225657 | 26 | 45 | 3.2 | 11.3 | 0.00 | 0.00 | 0.00 | 81 | 1001.0 |
| 20260506225148 | 26 | 338 | 3.2 | 11.3 | 0.00 | 0.00 | 0.00 | 81 | 1001.3 |
| 20260506224127 | 25 | 68 | 4.8 | 11.3 | 0.00 | 0.00 | 0.00 | 81 | 1001.1 |
| 20260506223617 | 25 | 90 | 4.8 | 11.3 | 0.00 | 0.00 | 0.00 | 81 | 1000.9 |
| 20260506222047 | 25 | 90 | 3.2 | 9.7 | 0.00 | 0.00 | 0.00 | 81 | 1001.6 |
| 20260506221537 | 25 | 68 | 3.2 | 6.4 | 0.00 | 0.00 | 0.00 | 81 | 1001.6 |
| 20260506221027 | 26 | 68 | 3.2 | 9.7 | 0.00 | 0.00 | 0.00 | 80 | 1001.6 |
| 20260506220017 | 26 | 45 | 4.8 | 9.7 | 0.00 | 0.00 | 0.00 | 79 | 1001.6 |
| 20260506215457 | 26 | 68 | 6.4 | 9.7 | 0.00 | 0.00 | 0.00 | 79 | 1001.9 |
| 20260506214435 | 26 | 90 | 4.8 | 9.7 | 0.00 | 0.00 | 0.00 | 79 | 1002.0 |
| 20260506213925 | 26 | 113 | 4.8 | 11.3 | 0.00 | 0.00 | 0.00 | 80 | 1002.2 |
| 20260506213415 | 26 | 90 | 4.8 | 11.3 | 0.00 | 0.00 | 0.00 | 79 | 1002.2 |
| 20260506212905 | 26 | 90 | 3.2 | 6.4 | 0.00 | 0.00 | 0.00 | 80 | 1002.2 |
| 20260506212355 | 26 | 45 | 4.8 | 6.4 | 0.00 | 0.00 | 0.00 | 80 | 1002.2 |
| 20260506211845 | 26 | 68 | 3.2 | 6.4 | 0.00 | 0.00 | 0.00 | 79 | 1002.4 |
| 20260506211335 | 26 | 68 | 3.2 | 6.4 | 0.00 | 0.00 | 0.00 | 79 | 1002.7 |
| 20260506210826 | 27 | 68 | 3.2 | 6.4 | 0.00 | 0.00 | 0.00 | 78 | 1002.7 |
| 20260506210314 | 27 | 68 | 3.2 | 6.4 | 0.00 | 0.00 | 0.00 | 76 | 1002.8 |
| 20260506205805 | 27 | 68 | 3.2 | 6.4 | 0.00 | 0.00 | 0.00 | 76 | 1003.2 |
| 20260506205255 | 27 | 90 | 3.2 | 6.4 | 0.00 | 0.00 | 0.00 | 76 | 1002.9 |
| 20260506204234 | 27 | 338 | 3.2 | 6.4 | 0.00 | 0.00 | 0.00 | 79 | 1003.3 |
| 20260506203725 | 27 | 90 | 1.6 | 6.4 | 0.00 | 0.00 | 0.00 | 80 | 1003.3 |
| 20260506203214 | 27 | 90 | 0.0 | 6.4 | 0.00 | 0.00 | 0.00 | 80 | 1003.4 |
| 20260506202703 | 27 | 90 | 1.6 | 6.4 | 0.00 | 0.00 | 0.00 | 79 | 1003.3 |
| 20260506202203 | 27 | 90 | 3.2 | 6.4 | 0.00 | 0.00 | 0.00 | 79 | 1003.2 |